When you browse on this site, cookies collect data to enhance your experience and personalize the content and advertising you see.
Visit our Privacy Policy to learn more. By continuing to use the site, you agree to this use of cookies and data.
  • In Belgium
  • List of Countries
  • For 7 days
  • Water Temperature
  • Satellite Maps
  • Weather Map
  • Weather Widgets
  • user-avatar
    Login

    Hourly Weather Ghanzi

    Today, 19 April, Friday

    Time Temperature Precipitation Wind Pressure Humidity
    00:00 +24°C° 0 mm 3 mps 716 mmHg 11%
    01:00 +24°C° 0 mm 3 mps 716 mmHg 11%
    02:00 +22°C° 0 mm 3 mps 716 mmHg 12%
    03:00 +21°C° 0 mm 3 mps 716 mmHg 12%
    04:00 +21°C° 0 mm 3 mps 716 mmHg 13%
    05:00 +22°C° 0 mm 3 mps 716 mmHg 12%
    06:00 +24°C° 0 mm 3 mps 717 mmHg 11%
    07:00 +25°C° 0 mm 3 mps 717 mmHg 11%
    08:00 +27°C° 0 mm 3 mps 718 mmHg 10%
    09:00 +29°C° 0 mm 4 mps 718 mmHg 9%
    10:00 +33°C° 0 mm 4 mps 719 mmHg 7%
    11:00 +34°C° 0 mm 4 mps 718 mmHg 7%
    12:00 +35°C° 0 mm 3 mps 718 mmHg 6%
    13:00 +36°C° 0 mm 3 mps 717 mmHg 5%
    14:00 +36°C° 0 mm 3 mps 717 mmHg 5%
    15:00 +36°C° 0 mm 4 mps 716 mmHg 5%
    16:00 +36°C° 0 mm 4 mps 716 mmHg 5%
    17:00 +34°C° 0 mm 3 mps 716 mmHg 6%
    18:00 +31°C° 0 mm 3 mps 716 mmHg 7%
    19:00 +29°C° 0 mm 3 mps 716 mmHg 8%
    20:00 +29°C° 0 mm 3 mps 716 mmHg 8%
    21:00 +28°C° 0 mm 4 mps 717 mmHg 9%
    22:00 +27°C° 0 mm 4 mps 717 mmHg 9%
    23:00 +26°C° 0 mm 4 mps 717 mmHg 11%

    Tomorrow, 20 April, Saturday

    Time Temperature Precipitation Wind Pressure Humidity
    00:00 +25°C° 0 mm 5 mps 716 mmHg 14%
    01:00 +23°C° 0 mm 5 mps 716 mmHg 16%
    02:00 +23°C° 0 mm 5 mps 716 mmHg 17%
    03:00 +22°C° 0 mm 5 mps 716 mmHg 19%
    04:00 +21°C° 0 mm 5 mps 716 mmHg 21%
    05:00 +22°C° 0 mm 6 mps 717 mmHg 20%
    06:00 +23°C° 0 mm 6 mps 717 mmHg 20%
    07:00 +23°C° 0 mm 7 mps 718 mmHg 19%
    08:00 +27°C° 0 mm 7 mps 718 mmHg 16%
    09:00 +29°C° 0 mm 6 mps 718 mmHg 14%
    10:00 +33°C° 0 mm 6 mps 718 mmHg 11%
    11:00 +34°C° 0 mm 6 mps 718 mmHg 10%
    12:00 +35°C° 0 mm 6 mps 717 mmHg 9%
    13:00 +36°C° 0 mm 5 mps 716 mmHg 8%
    14:00 +36°C° 0 mm 5 mps 716 mmHg 8%
    15:00 +36°C° 0 mm 5 mps 716 mmHg 8%
    16:00 +36°C° 0 mm 5 mps 715 mmHg 7%
    17:00 +34°C° 0 mm 5 mps 715 mmHg 8%
    18:00 +32°C° 0 mm 5 mps 716 mmHg 9%
    19:00 +29°C° 0 mm 5 mps 716 mmHg 10%
    20:00 +28°C° 0 mm 6 mps 716 mmHg 12%
    21:00 +28°C° 0 mm 6 mps 717 mmHg 13%
    22:00 +27°C° 0 mm 6 mps 717 mmHg 14%
    23:00 +26°C° 0 mm 6 mps 717 mmHg 15%

    Day after tomorrow, 21 April, Sunday

    Time Temperature Precipitation Wind Pressure Humidity
    00:00 +24°C° 0 mm 6 mps 717 mmHg 16%
    01:00 +23°C° 0 mm 5 mps 716 mmHg 17%
    02:00 +22°C° 0 mm 5 mps 716 mmHg 18%
    03:00 +21°C° 0 mm 5 mps 716 mmHg 19%
    04:00 +21°C° 0 mm 5 mps 716 mmHg 20%
    05:00 +21°C° 0 mm 6 mps 717 mmHg 19%
    06:00 +22°C° 0 mm 7 mps 717 mmHg 18%
    07:00 +23°C° 0 mm 7 mps 718 mmHg 17%
    08:00 +26°C° 0 mm 7 mps 718 mmHg 15%
    09:00 +28°C° 0 mm 7 mps 718 mmHg 13%
    10:00 +32°C° 0 mm 7 mps 719 mmHg 11%
    11:00 +33°C° 0 mm 7 mps 718 mmHg 9%
    12:00 +34°C° 0 mm 7 mps 717 mmHg 8%
    13:00 +35°C° 0 mm 7 mps 717 mmHg 7%
    14:00 +35°C° 0 mm 7 mps 716 mmHg 7%
    15:00 +35°C° 0 mm 7 mps 716 mmHg 7%
    16:00 +35°C° 0 mm 7 mps 715 mmHg 7%
    17:00 +33°C° 0 mm 6 mps 715 mmHg 8%
    18:00 +30°C° 0 mm 5 mps 716 mmHg 9%
    19:00 +28°C° 0 mm 4 mps 716 mmHg 10%
    20:00 +27°C° 0 mm 5 mps 716 mmHg 11%
    21:00 +27°C° 0 mm 5 mps 716 mmHg 12%
    22:00 +26°C° 0 mm 5 mps 717 mmHg 12%
    23:00 +25°C° 0 mm 5 mps 717 mmHg 13%

    22 April, Monday

    Time Temperature Precipitation Wind Pressure Humidity
    00:00 +23°C° 0 mm 5 mps 716 mmHg 13%
    01:00 +22°C° 0 mm 5 mps 716 mmHg 14%
    02:00 +21°C° 0 mm 5 mps 716 mmHg 15%
    03:00 +21°C° 0 mm 4 mps 716 mmHg 16%
    04:00 +20°C° 0 mm 4 mps 715 mmHg 16%
    05:00 +21°C° 0 mm 4 mps 716 mmHg 15%
    06:00 +22°C° 0 mm 4 mps 716 mmHg 14%
    07:00 +22°C° 0 mm 4 mps 717 mmHg 13%
    08:00 +26°C° 0 mm 4 mps 717 mmHg 12%
    09:00 +28°C° 0 mm 5 mps 717 mmHg 11%
    10:00 +30°C° 0 mm 5 mps 718 mmHg 9%
    11:00 +32°C° 0 mm 5 mps 717 mmHg 8%
    12:00 +34°C° 0 mm 4 mps 717 mmHg 7%
    13:00 +35°C° 0 mm 4 mps 716 mmHg 6%
    14:00 +35°C° 0 mm 5 mps 715 mmHg 6%
    15:00 +36°C° 0 mm 5 mps 715 mmHg 6%
    16:00 +36°C° 0 mm 6 mps 715 mmHg 5%
    17:00 +34°C° 0 mm 5 mps 715 mmHg 6%
    18:00 +32°C° 0 mm 4 mps 715 mmHg 7%
    19:00 +29°C° 0 mm 3 mps 715 mmHg 8%
    20:00 +28°C° 0 mm 3 mps 716 mmHg 8%
    21:00 +27°C° 0 mm 3 mps 716 mmHg 8%
    22:00 +26°C° 0 mm 3 mps 716 mmHg 8%
    23:00 +26°C° 0 mm 3 mps 716 mmHg 9%

    23 April, Tuesday

    Time Temperature Precipitation Wind Pressure Humidity
    00:00 +25°C° 0 mm 3 mps 716 mmHg 10%
    01:00 +24°C° 0 mm 3 mps 716 mmHg 11%
    02:00 +22°C° 0 mm 3 mps 716 mmHg 12%
    03:00 +21°C° 0 mm 3 mps 716 mmHg 13%
    04:00 +21°C° 0 mm 3 mps 716 mmHg 14%
    05:00 +22°C° 0 mm 3 mps 716 mmHg 13%
    06:00 +23°C° 0 mm 4 mps 717 mmHg 13%
    07:00 +25°C° 0 mm 4 mps 718 mmHg 12%
    08:00 +27°C° 0 mm 5 mps 718 mmHg 10%
    09:00 +30°C° 0 mm 5 mps 718 mmHg 9%
    10:00 +33°C° 0 mm 6 mps 718 mmHg 7%
    11:00 +34°C° 0 mm 6 mps 718 mmHg 7%
    12:00 +36°C° 0 mm 5 mps 717 mmHg 6%
    13:00 +37°C° 0 mm 5 mps 717 mmHg 5%
    14:00 +37°C° 0 mm 5 mps 716 mmHg 5%
    15:00 +37°C° 0 mm 5 mps 716 mmHg 5%
    16:00 +37°C° 0 mm 5 mps 715 mmHg 5%
    17:00 +35°C° 0 mm 4 mps 716 mmHg 6%
    18:00 +33°C° 0 mm 4 mps 716 mmHg 7%
    19:00 +30°C° 0 mm 3 mps 716 mmHg 8%
    20:00 +29°C° 0 mm 3 mps 716 mmHg 8%
    21:00 +29°C° 0 mm 3 mps 716 mmHg 9%
    22:00 +28°C° 0 mm 4 mps 716 mmHg 9%
    23:00 +27°C° 0 mm 4 mps 716 mmHg 10%

    24 April, Wednesday

    Time Temperature Precipitation Wind Pressure Humidity
    00:00 +26°C° 0 mm 3 mps 716 mmHg 10%
    01:00 +26°C° 0 mm 3 mps 715 mmHg 10%
    02:00 +25°C° 0 mm 3 mps 715 mmHg 11%
    03:00 +24°C° 0 mm 3 mps 715 mmHg 11%
    04:00 +22°C° 0 mm 3 mps 715 mmHg 12%
    05:00 +24°C° 0 mm 3 mps 716 mmHg 11%
    06:00 +25°C° 0 mm 3 mps 717 mmHg 10%
    07:00 +26°C° 0 mm 3 mps 717 mmHg 9%
    08:00 +28°C° 0 mm 4 mps 717 mmHg 8%
    09:00 +30°C° 0 mm 4 mps 718 mmHg 7%
    10:00 +34°C° 0 mm 4 mps 718 mmHg 6%
    11:00 +35°C° 0 mm 4 mps 717 mmHg 6%
    12:00 +36°C° 0 mm 4 mps 717 mmHg 6%
    13:00 +37°C° 0 mm 4 mps 716 mmHg 6%
    14:00 +38°C° 0 mm 4 mps 716 mmHg 5%
    15:00 +38°C° 0 mm 4 mps 715 mmHg 5%
    16:00 +39°C° 0 mm 5 mps 715 mmHg 5%
    17:00 +36°C° 0 mm 4 mps 715 mmHg 6%
    18:00 +34°C° 0 mm 4 mps 715 mmHg 6%
    19:00 +31°C° 0 mm 3 mps 715 mmHg 7%
    20:00 +30°C° 0 mm 3 mps 715 mmHg 7%
    21:00 +29°C° 0 mm 3 mps 715 mmHg 7%
    22:00 +29°C° 0 mm 3 mps 716 mmHg 7%
    23:00 +28°C° 0 mm 4 mps 716 mmHg 8%
    Show more